Year,Month,Day,Hour,Minute,Value (Times are PST for insolation in W/m^2)
2016,01,28,00,00,0.00
2016,01,28,00,01,0.00
2016,01,28,00,02,0.00
2016,01,28,00,03,0.00
2016,01,28,00,04,0.00
2016,01,28,00,05,0.00
2016,01,28,00,06,0.00
2016,01,28,00,07,0.00
2016,01,28,00,08,0.00
2016,01,28,00,09,0.00
2016,01,28,00,10,0.00
2016,01,28,00,11,0.00
2016,01,28,00,12,0.00
2016,01,28,00,13,0.00
2016,01,28,00,14,0.00
2016,01,28,00,15,0.00
2016,01,28,00,16,0.00
2016,01,28,00,17,0.00
2016,01,28,00,18,0.00
2016,01,28,00,19,0.00
2016,01,28,00,20,0.00
2016,01,28,00,21,0.00
2016,01,28,00,22,0.00
2016,01,28,00,23,0.00
2016,01,28,00,24,0.00
2016,01,28,00,25,0.00
2016,01,28,00,26,0.00
2016,01,28,00,27,0.00
2016,01,28,00,28,0.00
2016,01,28,00,29,0.00
2016,01,28,00,30,0.00
2016,01,28,00,31,0.00
2016,01,28,00,32,0.00
2016,01,28,00,33,0.00
2016,01,28,00,34,0.00
2016,01,28,00,35,0.00
2016,01,28,00,36,0.00
2016,01,28,00,37,0.00
2016,01,28,00,38,0.00
2016,01,28,00,39,0.00
2016,01,28,00,40,0.00
2016,01,28,00,41,0.00
2016,01,28,00,42,0.00
2016,01,28,00,43,0.00
2016,01,28,00,44,0.00
2016,01,28,00,45,0.00
2016,01,28,00,46,0.00
2016,01,28,00,47,0.00
2016,01,28,00,48,0.00
2016,01,28,00,49,0.00
2016,01,28,00,50,0.00
2016,01,28,00,51,0.00
2016,01,28,00,52,0.00
2016,01,28,00,53,0.00
2016,01,28,00,54,0.00
2016,01,28,00,55,0.00
2016,01,28,00,56,0.00
2016,01,28,00,57,0.00
2016,01,28,00,58,0.00
2016,01,28,00,59,0.00
2016,01,28,01,00,0.00
2016,01,28,01,01,0.00
2016,01,28,01,02,0.00
2016,01,28,01,03,0.00
2016,01,28,01,04,0.00
2016,01,28,01,05,0.00
2016,01,28,01,06,0.00
2016,01,28,01,07,0.00
2016,01,28,01,08,0.00
2016,01,28,01,09,0.00
2016,01,28,01,10,0.00
2016,01,28,01,11,0.00
2016,01,28,01,12,0.00
2016,01,28,01,13,0.00
2016,01,28,01,14,0.00
2016,01,28,01,15,0.00
2016,01,28,01,16,0.00
2016,01,28,01,17,0.00
2016,01,28,01,18,0.00
2016,01,28,01,19,0.00
2016,01,28,01,20,0.00
2016,01,28,01,21,0.00
2016,01,28,01,22,0.00
2016,01,28,01,23,0.00
2016,01,28,01,24,0.00
2016,01,28,01,25,0.00
2016,01,28,01,26,0.00
2016,01,28,01,27,0.00
2016,01,28,01,28,0.00
2016,01,28,01,29,0.00
2016,01,28,01,30,0.00
2016,01,28,01,31,0.00
2016,01,28,01,32,0.00
2016,01,28,01,33,0.00
2016,01,28,01,34,0.00
2016,01,28,01,35,0.00
2016,01,28,01,36,0.00
2016,01,28,01,37,0.00
2016,01,28,01,38,0.00
2016,01,28,01,39,0.00
2016,01,28,01,40,0.00
2016,01,28,01,41,0.00
2016,01,28,01,42,0.00
2016,01,28,01,43,0.00
2016,01,28,01,44,0.00
2016,01,28,01,45,0.00
2016,01,28,01,46,0.00
2016,01,28,01,47,0.00
2016,01,28,01,48,0.00
2016,01,28,01,49,0.00
2016,01,28,01,50,0.00
2016,01,28,01,51,0.00
2016,01,28,01,52,0.00
2016,01,28,01,53,0.00
2016,01,28,01,54,0.00
2016,01,28,01,55,0.00
2016,01,28,01,56,0.00
2016,01,28,01,57,0.00
2016,01,28,01,58,0.00
2016,01,28,01,59,0.00
2016,01,28,02,00,0.00
2016,01,28,02,01,0.00
2016,01,28,02,02,0.00
2016,01,28,02,03,0.00
2016,01,28,02,04,0.00
2016,01,28,02,05,0.00
2016,01,28,02,06,0.00
2016,01,28,02,07,0.00
2016,01,28,02,08,0.00
2016,01,28,02,09,0.00
2016,01,28,02,10,0.00
2016,01,28,02,11,0.00
2016,01,28,02,12,0.00
2016,01,28,02,13,0.00
2016,01,28,02,14,0.00
2016,01,28,02,15,0.00
2016,01,28,02,16,0.00
2016,01,28,02,17,0.00
2016,01,28,02,18,0.00
2016,01,28,02,19,0.00
2016,01,28,02,20,0.00
2016,01,28,02,21,0.00
2016,01,28,02,22,0.00
2016,01,28,02,23,0.00
2016,01,28,02,24,0.00
2016,01,28,02,25,0.00
2016,01,28,02,26,0.00
2016,01,28,02,27,0.00
2016,01,28,02,28,0.00
2016,01,28,02,29,0.00
2016,01,28,02,30,0.00
2016,01,28,02,31,0.00
2016,01,28,02,32,0.00
2016,01,28,02,33,0.00
2016,01,28,02,34,0.00
2016,01,28,02,35,0.00
2016,01,28,02,36,0.00
2016,01,28,02,37,0.00
2016,01,28,02,38,0.00
2016,01,28,02,39,0.00
2016,01,28,02,40,0.00
2016,01,28,02,41,0.00
2016,01,28,02,42,0.00
2016,01,28,02,43,0.00
2016,01,28,02,44,0.00
2016,01,28,02,45,0.00
2016,01,28,02,46,0.00
2016,01,28,02,47,0.00
2016,01,28,02,48,0.00
2016,01,28,02,49,0.00
2016,01,28,02,50,0.00
2016,01,28,02,51,0.00
2016,01,28,02,52,0.00
2016,01,28,02,53,0.00
2016,01,28,02,54,0.00
2016,01,28,02,55,0.00
2016,01,28,02,56,0.00
2016,01,28,02,57,0.00
2016,01,28,02,58,0.00
2016,01,28,02,59,0.00
2016,01,28,03,00,0.00
2016,01,28,03,01,0.00
2016,01,28,03,02,0.00
2016,01,28,03,06,0.00
2016,01,28,03,07,0.00
2016,01,28,03,08,0.00
2016,01,28,03,09,0.00
2016,01,28,03,10,0.00
2016,01,28,03,11,0.00
2016,01,28,03,12,0.00
2016,01,28,03,13,0.00
2016,01,28,03,14,0.00
2016,01,28,03,15,0.00
2016,01,28,03,16,0.00
2016,01,28,03,17,0.00
2016,01,28,03,18,0.00
2016,01,28,03,19,0.00
2016,01,28,03,20,0.00
2016,01,28,03,21,0.00
2016,01,28,03,22,0.00
2016,01,28,03,23,0.00
2016,01,28,03,24,0.00
2016,01,28,03,25,0.00
2016,01,28,03,26,0.00
2016,01,28,03,27,0.00
2016,01,28,03,28,0.00
2016,01,28,03,29,0.00
2016,01,28,03,30,0.00
2016,01,28,03,31,0.00
2016,01,28,03,32,0.00
2016,01,28,03,33,0.00
2016,01,28,03,34,0.00
2016,01,28,03,35,0.00
2016,01,28,03,36,0.00
2016,01,28,03,37,0.00
2016,01,28,03,38,0.00
2016,01,28,03,39,0.00
2016,01,28,03,40,0.00
2016,01,28,03,41,0.00
2016,01,28,03,42,0.00
2016,01,28,03,43,0.00
2016,01,28,03,44,0.00
2016,01,28,03,45,0.00
2016,01,28,03,46,0.00
2016,01,28,03,47,0.00
2016,01,28,03,48,0.00
2016,01,28,03,49,0.00
2016,01,28,03,50,0.00
2016,01,28,03,51,0.00
2016,01,28,03,52,0.00
2016,01,28,03,53,0.00
2016,01,28,03,54,0.00
2016,01,28,03,55,0.00
2016,01,28,03,56,0.00
2016,01,28,03,57,0.00
2016,01,28,03,58,0.00
2016,01,28,03,59,0.00
2016,01,28,04,00,0.00
2016,01,28,04,01,0.00
2016,01,28,04,02,0.00
2016,01,28,04,03,0.00
2016,01,28,04,04,0.00
2016,01,28,04,05,0.00
2016,01,28,04,06,0.00
2016,01,28,04,07,0.00
2016,01,28,04,08,0.00
2016,01,28,04,09,0.00
2016,01,28,04,10,0.00
2016,01,28,04,11,0.00
2016,01,28,04,12,0.00
2016,01,28,04,13,0.00
2016,01,28,04,14,0.00
2016,01,28,04,15,0.00
2016,01,28,04,16,0.00
2016,01,28,04,17,0.00
2016,01,28,04,18,0.00
2016,01,28,04,19,0.00
2016,01,28,04,20,0.00
2016,01,28,04,21,0.00
2016,01,28,04,22,0.00
2016,01,28,04,23,0.00
2016,01,28,04,24,0.00
2016,01,28,04,25,0.00
2016,01,28,04,26,0.00
2016,01,28,04,27,0.00
2016,01,28,04,28,0.00
2016,01,28,04,29,0.00
2016,01,28,04,30,0.00
2016,01,28,04,31,0.00
2016,01,28,04,32,0.00
2016,01,28,04,33,0.00
2016,01,28,04,34,0.00
2016,01,28,04,35,0.00
2016,01,28,04,36,0.00
2016,01,28,04,37,0.00
2016,01,28,04,38,0.00
2016,01,28,04,39,0.00
2016,01,28,04,40,0.00
2016,01,28,04,41,0.00
2016,01,28,04,42,0.00
2016,01,28,04,43,0.00
2016,01,28,04,44,0.00
2016,01,28,04,45,0.00
2016,01,28,04,46,0.00
2016,01,28,04,47,0.00
2016,01,28,04,48,0.00
2016,01,28,04,49,0.00
2016,01,28,04,50,0.00
2016,01,28,04,51,0.00
2016,01,28,04,52,0.00
2016,01,28,04,53,0.00
2016,01,28,04,54,0.00
2016,01,28,04,55,0.00
2016,01,28,04,56,0.00
2016,01,28,04,57,0.00
2016,01,28,04,58,0.00
2016,01,28,04,59,0.00
2016,01,28,05,00,0.00
2016,01,28,05,01,0.00
2016,01,28,05,02,0.00
2016,01,28,05,03,0.00
2016,01,28,05,04,0.00
2016,01,28,05,05,0.00
2016,01,28,05,06,0.00
2016,01,28,05,07,0.00
2016,01,28,05,08,0.00
2016,01,28,05,09,0.00
2016,01,28,05,10,0.00
2016,01,28,05,11,0.00
2016,01,28,05,12,0.00
2016,01,28,05,13,0.00
2016,01,28,05,14,0.00
2016,01,28,05,15,0.00
2016,01,28,05,16,0.00
2016,01,28,05,17,0.00
2016,01,28,05,18,0.00
2016,01,28,05,19,0.00
2016,01,28,05,20,0.00
2016,01,28,05,21,0.00
2016,01,28,05,22,0.00
2016,01,28,05,23,0.00
2016,01,28,05,24,0.00
2016,01,28,05,25,0.00
2016,01,28,05,26,0.00
2016,01,28,05,27,0.00
2016,01,28,05,28,0.00
2016,01,28,05,29,0.00
2016,01,28,05,30,0.00
2016,01,28,05,31,0.00
2016,01,28,05,32,0.00
2016,01,28,05,33,0.00
2016,01,28,05,34,0.00
2016,01,28,05,35,0.00
2016,01,28,05,36,0.00
2016,01,28,05,37,0.00
2016,01,28,05,38,0.00
2016,01,28,05,39,0.00
2016,01,28,05,40,0.00
2016,01,28,05,41,0.00
2016,01,28,05,42,0.00
2016,01,28,05,43,0.00
2016,01,28,05,44,0.00
2016,01,28,05,45,0.00
2016,01,28,05,46,0.00
2016,01,28,05,47,0.00
2016,01,28,05,48,0.00
2016,01,28,05,49,0.00
2016,01,28,05,50,0.00
2016,01,28,05,51,0.00
2016,01,28,05,52,0.00
2016,01,28,05,53,0.00
2016,01,28,05,54,0.00
2016,01,28,05,55,0.00
2016,01,28,05,56,0.00
2016,01,28,05,57,0.00
2016,01,28,05,58,0.00
2016,01,28,05,59,0.00
2016,01,28,06,00,0.00
2016,01,28,06,01,0.00
2016,01,28,06,02,0.00
2016,01,28,06,03,0.00
2016,01,28,06,04,0.00
2016,01,28,06,05,0.00
2016,01,28,06,06,0.00
2016,01,28,06,07,0.00
2016,01,28,06,08,0.00
2016,01,28,06,09,0.00
2016,01,28,06,10,0.00
2016,01,28,06,11,0.00
2016,01,28,06,12,0.00
2016,01,28,06,13,0.00
2016,01,28,06,14,0.00
2016,01,28,06,15,0.00
2016,01,28,06,16,0.00
2016,01,28,06,17,0.00
2016,01,28,06,18,0.00
2016,01,28,06,19,0.00
2016,01,28,06,20,0.00
2016,01,28,06,21,0.00
2016,01,28,06,22,0.00
2016,01,28,06,23,0.00
2016,01,28,06,24,0.00
2016,01,28,06,25,0.00
2016,01,28,06,26,0.00
2016,01,28,06,27,0.00
2016,01,28,06,28,0.00
2016,01,28,06,29,0.00
2016,01,28,06,30,0.00
2016,01,28,06,31,0.00
2016,01,28,06,32,0.00
2016,01,28,06,33,0.00
2016,01,28,06,34,0.00
2016,01,28,06,35,0.00
2016,01,28,06,36,0.00
2016,01,28,06,37,0.00
2016,01,28,06,38,0.00
2016,01,28,06,39,0.00
2016,01,28,06,40,0.00
2016,01,28,06,41,0.00
2016,01,28,06,42,0.00
2016,01,28,06,43,0.00
2016,01,28,06,44,0.00
2016,01,28,06,45,0.00
2016,01,28,06,46,0.00
2016,01,28,06,47,0.00
2016,01,28,06,48,0.00
2016,01,28,06,49,0.00
2016,01,28,06,50,0.00
2016,01,28,06,51,0.00
2016,01,28,06,52,0.00
2016,01,28,06,53,0.00
2016,01,28,06,54,0.00
2016,01,28,06,55,0.00
2016,01,28,06,56,0.00
2016,01,28,06,57,0.00
2016,01,28,06,58,0.00
2016,01,28,06,59,0.00
2016,01,28,07,00,0.00
2016,01,28,07,01,0.00
2016,01,28,07,02,0.00
2016,01,28,07,03,0.00
2016,01,28,07,04,0.00
2016,01,28,07,05,0.00
2016,01,28,07,06,0.00
2016,01,28,07,07,0.00
2016,01,28,07,08,0.00
2016,01,28,07,09,0.00
2016,01,28,07,10,0.00
2016,01,28,07,11,0.00
2016,01,28,07,12,0.00
2016,01,28,07,13,0.00
2016,01,28,07,14,0.00
2016,01,28,07,15,0.00
2016,01,28,07,16,0.00
2016,01,28,07,17,0.00
2016,01,28,07,18,0.00
2016,01,28,07,19,0.00
2016,01,28,07,20,0.00
2016,01,28,07,21,0.00
2016,01,28,07,22,0.00
2016,01,28,07,23,0.00
2016,01,28,07,24,0.00
2016,01,28,07,25,0.00
2016,01,28,07,26,0.00
2016,01,28,07,27,0.00
2016,01,28,07,28,0.00
2016,01,28,07,29,0.00
2016,01,28,07,30,0.00
2016,01,28,07,31,0.00
2016,01,28,07,32,0.00
2016,01,28,07,33,0.00
2016,01,28,07,34,0.00
2016,01,28,07,35,0.00
2016,01,28,07,36,0.00
2016,01,28,07,37,0.00
2016,01,28,07,38,0.00
2016,01,28,07,39,0.00
2016,01,28,07,40,0.00
2016,01,28,07,41,0.00
2016,01,28,07,42,0.00
2016,01,28,07,43,0.00
2016,01,28,07,44,0.00
2016,01,28,07,45,0.00
2016,01,28,07,46,0.00
2016,01,28,07,47,0.00
2016,01,28,07,48,0.00
2016,01,28,07,49,0.00
2016,01,28,07,50,0.00
2016,01,28,07,51,0.00
2016,01,28,07,52,0.00
2016,01,28,07,53,0.00
2016,01,28,07,54,0.00
2016,01,28,07,55,0.00
2016,01,28,07,56,0.00
2016,01,28,07,57,0.00
2016,01,28,07,58,0.00
2016,01,28,07,59,0.00
2016,01,28,08,00,0.00
2016,01,28,08,01,0.00
2016,01,28,08,02,0.00
2016,01,28,08,03,0.00
2016,01,28,08,04,0.00
2016,01,28,08,05,4.30
2016,01,28,08,06,5.00
2016,01,28,08,07,5.00
2016,01,28,08,08,5.00
2016,01,28,08,09,5.40
2016,01,28,08,10,7.00
2016,01,28,08,11,7.60
2016,01,28,08,12,9.70
2016,01,28,08,13,11.40
2016,01,28,08,14,12.90
2016,01,28,08,15,15.10
2016,01,28,08,16,16.00
2016,01,28,08,17,17.30
2016,01,28,08,18,18.00
2016,01,28,08,19,18.80
2016,01,28,08,20,20.70
2016,01,28,08,21,24.60
2016,01,28,08,22,26.00
2016,01,28,08,23,28.20
2016,01,28,08,24,30.00
2016,01,28,08,25,30.00
2016,01,28,08,26,30.00
2016,01,28,08,27,31.00
2016,01,28,08,28,34.60
2016,01,28,08,29,37.00
2016,01,28,08,30,38.10
2016,01,28,08,31,39.00
2016,01,28,08,32,39.70
2016,01,28,08,33,40.00
2016,01,28,08,34,40.00
2016,01,28,08,35,41.70
2016,01,28,08,36,42.00
2016,01,28,08,37,44.00
2016,01,28,08,38,46.10
2016,01,28,08,39,47.00
2016,01,28,08,40,47.00
2016,01,28,08,41,47.00
2016,01,28,08,42,47.70
2016,01,28,08,43,50.70
2016,01,28,08,44,53.50
2016,01,28,08,45,56.10
2016,01,28,08,46,60.50
2016,01,28,08,47,62.00
2016,01,28,08,48,62.00
2016,01,28,08,49,62.00
2016,01,28,08,50,62.00
2016,01,28,08,51,54.80
2016,01,28,08,52,54.00
2016,01,28,08,53,54.00
2016,01,28,08,54,54.00
2016,01,28,08,55,53.80
2016,01,28,08,56,51.90
2016,01,28,08,57,48.30
2016,01,28,08,58,47.00
2016,01,28,08,59,47.00
2016,01,28,09,00,49.10
2016,01,28,09,01,52.70
2016,01,28,09,02,56.50
2016,01,28,09,03,59.40
2016,01,28,09,04,61.50
2016,01,28,09,05,62.80
2016,01,28,09,06,63.00
2016,01,28,09,07,62.00
2016,01,28,09,08,59.60
2016,01,28,09,09,55.70
2016,01,28,09,10,53.80
2016,01,28,09,11,53.00
2016,01,28,09,12,53.30
2016,01,28,09,13,58.50
2016,01,28,09,14,61.70
2016,01,28,09,15,71.60
2016,01,28,09,16,90.50
2016,01,28,09,17,96.90
2016,01,28,09,18,99.40
2016,01,28,09,19,85.30
2016,01,28,09,20,83.60
2016,01,28,09,21,96.70
2016,01,28,09,22,98.10
2016,01,28,09,23,100.10
2016,01,28,09,24,102.40
2016,01,28,09,25,106.40
2016,01,28,09,26,111.90
2016,01,28,09,27,100.70
2016,01,28,09,28,98.10
2016,01,28,09,29,130.90
2016,01,28,09,30,131.00
2016,01,28,09,31,130.00
2016,01,28,09,32,128.10
2016,01,28,09,33,119.10
2016,01,28,09,34,83.50
2016,01,28,09,35,113.40
2016,01,28,09,36,113.70
2016,01,28,09,37,134.10
2016,01,28,09,38,137.50
2016,01,28,09,39,137.30
2016,01,28,09,40,111.50
2016,01,28,09,41,126.90
2016,01,28,09,42,146.30
2016,01,28,09,43,149.00
2016,01,28,09,44,149.20
2016,01,28,09,45,154.60
2016,01,28,09,46,155.40
2016,01,28,09,47,159.30
2016,01,28,09,48,162.00
2016,01,28,09,49,166.00
2016,01,28,09,50,165.30
2016,01,28,09,51,147.90
2016,01,28,09,52,172.70
2016,01,28,09,53,174.00
2016,01,28,09,54,174.70
2016,01,28,09,55,167.40
2016,01,28,09,56,118.10
2016,01,28,09,57,87.30
2016,01,28,09,58,82.60
2016,01,28,09,59,84.20
2016,01,28,10,00,68.00
2016,01,28,10,01,67.00
2016,01,28,10,02,64.30
2016,01,28,10,03,59.40
2016,01,28,10,04,59.50
2016,01,28,10,05,60.00
2016,01,28,10,06,60.00
2016,01,28,10,07,75.20
2016,01,28,10,08,82.00
2016,01,28,10,09,72.20
2016,01,28,10,10,75.60
2016,01,28,10,11,79.60
2016,01,28,10,12,74.00
2016,01,28,10,13,101.90
2016,01,28,10,14,146.20
2016,01,28,10,15,129.30
2016,01,28,10,16,148.50
2016,01,28,10,17,171.00
2016,01,28,10,18,103.10
2016,01,28,10,19,63.60
2016,01,28,10,20,60.00
2016,01,28,10,21,60.00
2016,01,28,10,22,62.80
2016,01,28,10,23,70.60
2016,01,28,10,24,76.70
2016,01,28,10,25,82.90
2016,01,28,10,26,92.90
2016,01,28,10,27,98.70
2016,01,28,10,28,103.90
2016,01,28,10,29,110.00
2016,01,28,10,30,110.00
2016,01,28,10,31,106.20
2016,01,28,10,32,101.50
2016,01,28,10,33,98.60
2016,01,28,10,34,102.60
2016,01,28,10,35,108.10
2016,01,28,10,36,113.50
2016,01,28,10,37,126.40
2016,01,28,10,38,104.30
2016,01,28,10,39,95.30
2016,01,28,10,40,84.10
2016,01,28,10,41,74.10
2016,01,28,10,42,67.70
2016,01,28,10,43,65.80
2016,01,28,10,44,68.30
2016,01,28,10,45,68.40
2016,01,28,10,46,64.10
2016,01,28,10,47,59.50
2016,01,28,10,48,59.40
2016,01,28,10,49,61.60
2016,01,28,10,50,62.00
2016,01,28,10,51,56.60
2016,01,28,10,52,56.00
2016,01,28,10,53,39.90
2016,01,28,10,54,39.20
2016,01,28,10,55,41.10
2016,01,28,10,56,46.80
2016,01,28,10,57,49.70
2016,01,28,10,58,49.50
2016,01,28,10,59,43.40
2016,01,28,11,00,34.50
2016,01,28,11,01,27.10
2016,01,28,11,02,25.00
2016,01,28,11,03,25.80
2016,01,28,11,04,26.00
2016,01,28,11,05,26.00
2016,01,28,11,06,27.80
2016,01,28,11,07,29.90
2016,01,28,11,08,35.50
2016,01,28,11,09,40.90
2016,01,28,11,10,47.00
2016,01,28,11,11,51.80
2016,01,28,11,12,54.60
2016,01,28,11,13,56.00
2016,01,28,11,14,57.00
2016,01,28,11,15,57.00
2016,01,28,11,16,57.10
2016,01,28,11,17,59.30
2016,01,28,11,18,62.10
2016,01,28,11,19,66.00
2016,01,28,11,20,68.60
2016,01,28,11,21,73.30
2016,01,28,11,22,76.90
2016,01,28,11,23,81.20
2016,01,28,11,24,83.00
2016,01,28,11,25,82.60
2016,01,28,11,26,80.00
2016,01,28,11,27,76.00
2016,01,28,11,28,71.30
2016,01,28,11,29,62.90
2016,01,28,11,30,54.30
2016,01,28,11,31,47.00
2016,01,28,11,32,44.00
2016,01,28,11,33,36.70
2016,01,28,11,34,32.20
2016,01,28,11,35,32.00
2016,01,28,11,36,32.00
2016,01,28,11,37,33.00
2016,01,28,11,38,33.00
2016,01,28,11,39,32.60
2016,01,28,11,40,29.60
2016,01,28,11,41,27.40
2016,01,28,11,42,25.70
2016,01,28,11,43,25.00
2016,01,28,11,44,24.10
2016,01,28,11,45,22.00
2016,01,28,11,46,21.00
2016,01,28,11,47,21.00
2016,01,28,11,48,22.40
2016,01,28,11,49,25.30
2016,01,28,11,50,27.60
2016,01,28,11,51,31.40
2016,01,28,11,52,34.90
2016,01,28,11,53,37.10
2016,01,28,11,54,39.10
2016,01,28,11,55,40.40
2016,01,28,11,56,43.00
2016,01,28,11,57,49.20
2016,01,28,11,58,62.90
2016,01,28,11,59,81.70
2016,01,28,12,00,96.80
2016,01,28,12,01,103.70
2016,01,28,12,02,106.20
2016,01,28,12,03,109.70
2016,01,28,12,04,112.50
2016,01,28,12,05,118.70
2016,01,28,12,06,126.90
2016,01,28,12,07,151.80
2016,01,28,12,08,190.00
2016,01,28,12,09,190.00
2016,01,28,12,10,178.00
2016,01,28,12,11,128.70
2016,01,28,12,12,143.20
2016,01,28,12,13,158.40
2016,01,28,12,14,151.00
2016,01,28,12,15,151.00
2016,01,28,12,16,151.00
2016,01,28,12,17,151.00
2016,01,28,12,18,149.60
2016,01,28,12,19,143.70
2016,01,28,12,20,135.50
2016,01,28,12,21,122.20
2016,01,28,12,22,109.60
2016,01,28,12,23,101.60
2016,01,28,12,24,92.30
2016,01,28,12,25,87.60
2016,01,28,12,26,86.00
2016,01,28,12,27,86.60
2016,01,28,12,28,89.90
2016,01,28,12,29,93.00
2016,01,28,12,30,93.00
2016,01,28,12,31,93.00
2016,01,28,12,32,95.60
2016,01,28,12,33,106.50
2016,01,28,12,34,124.00
2016,01,28,12,35,146.60
2016,01,28,12,36,122.50
2016,01,28,12,37,104.70
2016,01,28,12,38,99.70
2016,01,28,12,39,92.70
2016,01,28,12,40,91.00
2016,01,28,12,41,90.30
2016,01,28,12,42,86.60
2016,01,28,12,43,81.50
2016,01,28,12,44,79.00
2016,01,28,12,45,80.80
2016,01,28,12,46,83.50
2016,01,28,12,47,84.00
2016,01,28,12,48,84.00
2016,01,28,12,49,81.80
2016,01,28,12,50,77.00
2016,01,28,12,51,70.00
2016,01,28,12,52,63.60
2016,01,28,12,53,60.00
2016,01,28,12,54,60.30
2016,01,28,12,55,64.10
2016,01,28,12,56,69.70
2016,01,28,12,57,73.70
2016,01,28,12,58,79.30
2016,01,28,12,59,86.40
2016,01,28,13,00,94.50
2016,01,28,13,01,101.40
2016,01,28,13,02,102.80
2016,01,28,13,03,98.60
2016,01,28,13,04,97.00
2016,01,28,13,05,105.10
2016,01,28,13,06,116.50
2016,01,28,13,07,116.10
2016,01,28,13,08,117.70
2016,01,28,13,09,113.30
2016,01,28,13,10,141.70
2016,01,28,13,11,200.00
2016,01,28,13,12,243.70
2016,01,28,13,13,378.10
2016,01,28,13,14,422.00
2016,01,28,13,15,272.50
2016,01,28,13,16,108.70
2016,01,28,13,17,104.80
2016,01,28,13,18,113.80
2016,01,28,13,19,137.30
2016,01,28,13,20,124.60
2016,01,28,13,21,152.80
2016,01,28,13,22,153.20
2016,01,28,13,23,153.00
2016,01,28,13,24,184.90
2016,01,28,13,25,387.00
2016,01,28,13,26,387.00
2016,01,28,13,27,415.00
2016,01,28,13,28,505.50
2016,01,28,13,29,517.00
2016,01,28,13,30,447.20
2016,01,28,13,31,396.40
2016,01,28,13,32,425.00
2016,01,28,13,33,521.70
2016,01,28,13,34,570.00
2016,01,28,13,35,392.40
2016,01,28,13,36,348.00
2016,01,28,13,37,348.00
2016,01,28,13,38,465.50
2016,01,28,13,39,463.60
2016,01,28,13,40,546.60
2016,01,28,13,41,555.40
2016,01,28,13,42,555.00
2016,01,28,13,43,538.50
2016,01,28,13,44,534.00
2016,01,28,13,45,534.00
2016,01,28,13,46,509.50
2016,01,28,13,47,489.60
2016,01,28,13,48,485.30
2016,01,28,13,49,467.00
2016,01,28,13,50,478.80
2016,01,28,13,51,486.40
2016,01,28,13,52,485.10
2016,01,28,13,53,481.70
2016,01,28,13,54,475.50
2016,01,28,13,55,468.80
2016,01,28,13,56,459.00
2016,01,28,13,57,397.30
2016,01,28,13,58,243.00
2016,01,28,13,59,174.90
2016,01,28,14,00,80.20
2016,01,28,14,01,74.90
2016,01,28,14,02,77.10
2016,01,28,14,03,132.90
2016,01,28,14,04,204.10
2016,01,28,14,05,221.00
2016,01,28,14,06,125.00
2016,01,28,14,07,126.30
2016,01,28,14,08,152.50
2016,01,28,14,09,144.00
2016,01,28,14,10,167.10
2016,01,28,14,11,211.00
2016,01,28,14,12,286.30
2016,01,28,14,13,313.60
2016,01,28,14,14,278.40
2016,01,28,14,15,247.20
2016,01,28,14,16,241.90
2016,01,28,14,17,242.90
2016,01,28,14,18,244.00
2016,01,28,14,19,369.80
2016,01,28,14,20,415.40
2016,01,28,14,21,415.00
2016,01,28,14,22,383.20
2016,01,28,14,23,374.70
2016,01,28,14,24,269.00
2016,01,28,14,25,243.50
2016,01,28,14,26,119.30
2016,01,28,14,27,67.20
2016,01,28,14,28,62.00
2016,01,28,14,29,62.40
2016,01,28,14,30,58.20
2016,01,28,14,31,51.90
2016,01,28,14,32,51.00
2016,01,28,14,33,52.30
2016,01,28,14,34,53.00
2016,01,28,14,35,51.40
2016,01,28,14,36,47.60
2016,01,28,14,37,46.10
2016,01,28,14,38,45.90
2016,01,28,14,39,44.20
2016,01,28,14,40,46.00
2016,01,28,14,41,46.00
2016,01,28,14,42,46.00
2016,01,28,14,43,46.00
2016,01,28,14,44,45.10
2016,01,28,14,45,43.00
2016,01,28,14,46,41.00
2016,01,28,14,47,39.40
2016,01,28,14,48,39.00
2016,01,28,14,49,39.80
2016,01,28,14,50,41.60
2016,01,28,14,51,43.70
2016,01,28,14,52,46.70
2016,01,28,14,53,48.90
2016,01,28,14,54,48.80
2016,01,28,14,55,46.90
2016,01,28,14,56,45.50
2016,01,28,14,57,44.00
2016,01,28,14,58,47.30
2016,01,28,14,59,59.30
2016,01,28,15,00,68.40
2016,01,28,15,01,76.30
2016,01,28,15,02,92.80
2016,01,28,15,03,104.70
2016,01,28,15,04,108.40
2016,01,28,15,05,109.00
2016,01,28,15,06,140.70
2016,01,28,15,07,141.50
2016,01,28,15,08,162.00
2016,01,28,15,09,161.20
2016,01,28,15,10,142.20
2016,01,28,15,11,131.20
2016,01,28,15,12,120.10
2016,01,28,15,13,111.70
2016,01,28,15,14,108.20
2016,01,28,15,15,104.60
2016,01,28,15,16,99.30
2016,01,28,15,17,91.40
2016,01,28,15,18,83.40
2016,01,28,15,19,77.40
2016,01,28,15,20,72.80
2016,01,28,15,21,73.70
2016,01,28,15,22,80.30
2016,01,28,15,23,84.00
2016,01,28,15,24,85.70
2016,01,28,15,25,83.00
2016,01,28,15,26,84.10
2016,01,28,15,27,89.40
2016,01,28,15,28,94.30
2016,01,28,15,29,101.90
2016,01,28,15,30,118.00
2016,01,28,15,31,141.10
2016,01,28,15,32,163.60
2016,01,28,15,33,189.90
2016,01,28,15,34,221.40
2016,01,28,15,35,178.20
2016,01,28,15,36,148.60
2016,01,28,15,37,136.00
2016,01,28,15,38,121.70
2016,01,28,15,39,122.60
2016,01,28,15,40,113.00
2016,01,28,15,41,106.50
2016,01,28,15,42,123.90
2016,01,28,15,43,171.00
2016,01,28,15,44,167.70
2016,01,28,15,45,131.60
2016,01,28,15,46,111.70
2016,01,28,15,47,125.00
2016,01,28,15,48,98.30
2016,01,28,15,49,84.00
2016,01,28,15,50,80.10
2016,01,28,15,51,74.70
2016,01,28,15,52,63.10
2016,01,28,15,53,50.80
2016,01,28,15,54,47.70
2016,01,28,15,55,55.60
2016,01,28,15,56,63.80
2016,01,28,15,57,68.80
2016,01,28,15,58,75.70
2016,01,28,15,59,78.20
2016,01,28,16,00,81.30
2016,01,28,16,01,80.50
2016,01,28,16,02,68.00
2016,01,28,16,03,57.00
2016,01,28,16,04,48.40
2016,01,28,16,05,55.30
2016,01,28,16,06,58.00
2016,01,28,16,07,59.80
2016,01,28,16,08,44.50
2016,01,28,16,09,39.90
2016,01,28,16,10,40.70
2016,01,28,16,11,53.10
2016,01,28,16,12,53.40
2016,01,28,16,13,35.30
2016,01,28,16,14,32.00
2016,01,28,16,15,29.00
2016,01,28,16,16,25.50
2016,01,28,16,17,23.80
2016,01,28,16,18,23.00
2016,01,28,16,19,26.60
2016,01,28,16,20,31.80
2016,01,28,16,21,33.00
2016,01,28,16,22,32.10
2016,01,28,16,23,33.00
2016,01,28,16,24,34.80
2016,01,28,16,25,33.30
2016,01,28,16,26,35.90
2016,01,28,16,27,40.40
2016,01,28,16,28,45.00
2016,01,28,16,29,48.70
2016,01,28,16,30,51.00
2016,01,28,16,31,48.80
2016,01,28,16,32,44.00
2016,01,28,16,33,38.70
2016,01,28,16,34,33.40
2016,01,28,16,35,27.40
2016,01,28,16,36,25.10
2016,01,28,16,37,23.20
2016,01,28,16,38,21.00
2016,01,28,16,39,18.70
2016,01,28,16,40,15.70
2016,01,28,16,41,13.50
2016,01,28,16,42,12.00
2016,01,28,16,43,12.00
2016,01,28,16,44,11.60
2016,01,28,16,45,11.00
2016,01,28,16,46,11.00
2016,01,28,16,47,11.00
2016,01,28,16,48,9.70
2016,01,28,16,49,9.00
2016,01,28,16,50,9.00
2016,01,28,16,51,9.00
2016,01,28,16,52,9.00
2016,01,28,16,53,8.90
2016,01,28,16,54,7.00
2016,01,28,16,55,7.00
2016,01,28,16,56,7.00
2016,01,28,16,57,7.00
2016,01,28,16,58,7.00
2016,01,28,16,59,6.20
2016,01,28,17,00,5.00
2016,01,28,17,01,5.00
2016,01,28,17,02,5.00
2016,01,28,17,03,5.00
2016,01,28,17,04,5.00
2016,01,28,17,05,5.00
2016,01,28,17,06,5.00
2016,01,28,17,07,5.00
2016,01,28,17,08,0.20
2016,01,28,17,09,0.00
2016,01,28,17,10,0.00
2016,01,28,17,11,0.00
2016,01,28,17,12,0.00
2016,01,28,17,13,0.00
2016,01,28,17,14,0.00
2016,01,28,17,15,0.00
2016,01,28,17,16,0.00
2016,01,28,17,17,0.00
2016,01,28,17,18,0.00
2016,01,28,17,19,0.00
2016,01,28,17,20,0.00
2016,01,28,17,21,0.00
2016,01,28,17,22,0.00
2016,01,28,17,23,0.00
2016,01,28,17,24,0.00
2016,01,28,17,25,0.00
2016,01,28,17,26,0.00
2016,01,28,17,27,0.00
2016,01,28,17,28,0.00
2016,01,28,17,29,0.00
2016,01,28,17,30,0.00
2016,01,28,17,31,0.00
2016,01,28,17,32,0.00
2016,01,28,17,33,0.00
2016,01,28,17,34,0.00
2016,01,28,17,35,0.00
2016,01,28,17,36,0.00
2016,01,28,17,37,0.00